Overview Statistics Trail Chart Weather Telemetry Raw packets
 

This is the latest recevied weather packets stored in our database for station/object NC4M. If no packets are shown the sender has not sent any weather packets the latest 10 day(s).

<< 100 101 102 103 104 105 106 >>
Time Temp. Humidity Pressure Rain* Wind** Luminosity Snow
1787812428 21.11° C 86% 1017 hPa 0 mm - 0 W/m² -
1787812123 21.11° C 87% 1016.9 hPa 0 mm - 0 W/m² -
1787811819 21.11° C 87% 1016.8 hPa 0 mm - 0 W/m² -
1787811518 21.11° C 87% 1016.9 hPa 0 mm - 0 W/m² -
1787811213 21.11° C 87% 1016.8 hPa 0 mm - 0 W/m² -
1787810909 21.11° C 85% 1016.9 hPa 0 mm - 0 W/m² -
1787810604 21.67° C 85% 1017.1 hPa 0 mm - 0 W/m² -
1787810303 21.67° C 86% 1017 hPa 0 mm - 0 W/m² -
1787809999 21.67° C 85% 1016.9 hPa 0 mm - 0 W/m² -
1787809693 21.67° C 85% 1016.7 hPa 0 mm - 0 W/m² -
1787809389 21.67° C 83% 1017 hPa 0 mm - 0 W/m² -
1787809085 21.67° C 86% 1017 hPa 0 mm - 0 W/m² -
1787808781 21.67° C 87% 1017.1 hPa 0 mm - 0 W/m² -
1787808480 21.67° C 88% 1016.8 hPa 0 mm - 0 W/m² -
1787808180 21.67° C 87% 1017 hPa 0 mm - 0 W/m² -
1787807878 21.67° C 86% 1016.9 hPa 0 mm - 0 W/m² -
1787807574 21.67° C 86% 1016.9 hPa 0 mm - 0 W/m² -
1787807269 21.67° C 87% 1017.1 hPa 0 mm - 0 W/m² -
1787806964 21.67° C 87% 1017 hPa 0 mm - 0 W/m² -
1787806662 22.22° C 87% 1017 hPa 0 mm - 0 W/m² -
1787806359 22.22° C 85% 1017 hPa 0 mm - 0 W/m² -
1787806057 22.22° C 85% 1017 hPa 0 mm - 0 W/m² -
1787805753 22.22° C 85% 1017 hPa 0 mm - 0 W/m² -
1787805448 22.78° C 85% 1016.9 hPa 0 mm - 0 W/m² -
1787805144 22.78° C 82% 1016.9 hPa 0 mm - 0 W/m² -

* Rain latest hour (hover to see other rain measurements)
** Current wind speed in m/s (hover to see current wind gust speed)